Rawlins, WY

3:41 AM MST on February 27, 2017 (GMT -0700)
Rawlins Municipal

Weather History for KRWL - March, 2014

Change the Weather History Date:

Monday, March 31, 2014

  Actual Average Record
Temperature  
Mean Temperature 32 °F 36 °F  
Max Temperature 40 °F 49 °F 73 °F (2012)
Min Temperature 24 °F 24 °F -4 °F (1954)
Degree Days  
Heating Degree Days 33 29  
Month to date heating degree days 941 1015  
Since 1 July heating degree days 6705 6972  
Cooling Degree Days 0 0  
Month to date cooling degree days 0 0  
Year to date cooling degree days 0 0  
Moisture  
Dew Point 23 °F    
Average Humidity 71    
Maximum Humidity 92    
Minimum Humidity 50    
Precipitation  
Precipitation T in 0.03 in 0.23 in (1957)
Month to date precipitation 0.49 0.68  
Year to date precipitation 0.95 1.46  
Sea Level Pressure  
Sea Level Pressure 29.85 in    
Wind  
Wind Speed 13 mph (West)    
Max Wind Speed 29 mph    
Max Gust Speed 35 mph    
Visibility 7 miles    
Events Snow    
T = Trace of Precipitation, MM = Missing Value Source: NWS Daily Summary

Daily Weather History Graph

Daily Weather History Graph

Search for Another Location

Airport or City:

Trip Planner

Search our weather history database for the weather conditions in past years. The results will help you decide how hot, cold, wet, or windy it might be!

Date:

Astronomy

Mar. 31, 2014 Rise Set
Actual Time 6:53 AM MDT 7:33 PM MDT
Civil Twilight 6:25 AM MDT 8:01 PM MDT
Nautical Twilight 5:52 AM MDT 8:34 PM MDT
Astronomical Twilight 5:17 AM MDT 9:09 PM MDT
Moon 7:17 AM MDT (3/31) 8:56 PM MDT (3/31)
Length of Visible Light 13h 36m
Length of Day
12h 40m
New Moon, 1% of the Moon is Illuminated
Mar 31
New Moon
Apr 7
First Quarter
Apr 15
Full
Apr 22
Last Quarter
Apr 29
New

Hourly Weather History & Observations

Time (MDT) Temp. Windchill Dew Point Humidity Pressure Visibility Wind Dir Wind Speed Gust Speed Precip Events Conditions
12:07 AM 28.4 °F 14.7 °F 26.6 °F 93% 29.65 in 0.8 mi WNW 21.9 mph 32.2 mph 0.01 in Snow Light Snow
12:19 AM 28.4 °F 14.7 °F 26.6 °F 93% 29.67 in 1.0 mi WNW 21.9 mph - 0.01 in Snow Light Snow
12:44 AM 28.4 °F 15.1 °F 26.6 °F 93% 29.69 in 2.5 mi WNW 20.7 mph 28.8 mph 0.01 in Snow Light Snow
12:53 AM 28.9 °F 15.1 °F 26.1 °F 89% 29.60 in 2.5 mi WNW 23.0 mph 29.9 mph 0.01 in Snow Light Snow
1:07 AM 28.4 °F 14.1 °F 24.8 °F 86% 29.71 in 4.0 mi WNW 24.2 mph 31.1 mph 0.00 in Snow Light Snow
1:23 AM 28.4 °F 13.8 °F 24.8 °F 86% 29.72 in 2.5 mi WNW 25.3 mph 33.4 mph 0.00 in Snow Light Snow
1:53 AM 28.0 °F 13.6 °F 24.1 °F 85% 29.65 in 4.0 mi WNW 24.2 mph - 0.00 in Snow Light Snow
2:10 AM 28.4 °F 14.7 °F 23.0 °F 80% 29.75 in 2.0 mi WNW 21.9 mph 31.1 mph 0.00 in Snow Light Snow
2:19 AM 26.6 °F 12.4 °F 21.2 °F 80% 29.75 in 7.0 mi WNW 21.9 mph 26.5 mph 0.00 in Snow Light Snow
2:53 AM 27.0 °F 13.9 °F 21.9 °F 81% 29.71 in 10.0 mi WNW 18.4 mph - 0.00 in   Overcast
3:30 AM 26.6 °F 14.3 °F 23.0 °F 86% 29.79 in 2.0 mi WNW 16.1 mph - 0.00 in Snow Light Snow
3:39 AM 26.6 °F 15.2 °F 24.8 °F 93% 29.80 in 1.8 mi WNW 13.8 mph - 0.00 in Snow Light Snow
3:51 AM 26.6 °F 13.4 °F 24.8 °F 93% 29.80 in 2.0 mi WNW 18.4 mph 24.2 mph 0.00 in Snow Light Snow
3:53 AM 27.0 °F 13.9 °F 24.1 °F 89% 29.73 in 2.5 mi West 18.4 mph 24.2 mph 0.00 in Snow Light Snow
3:58 AM 26.6 °F 13.4 °F 24.8 °F 93% 29.80 in 4.0 mi WNW 18.4 mph 25.3 mph 0.00 in Snow Light Snow
4:16 AM 26.6 °F 13.8 °F 24.8 °F 93% 29.82 in 7.0 mi WNW 17.3 mph - 0.00 in Snow Light Snow
4:37 AM 26.6 °F 12.0 °F 21.2 °F 80% 29.83 in 5.0 mi WNW 23.0 mph 27.6 mph 0.00 in Snow Light Snow
4:48 AM 26.6 °F 13.4 °F 21.2 °F 80% 29.85 in 9.0 mi WNW 18.4 mph 26.5 mph 0.00 in   Overcast
4:53 AM 27.0 °F 13.2 °F 23.0 °F 85% 29.78 in 10.0 mi West 20.7 mph 26.5 mph 0.00 in   Overcast
5:53 AM 26.1 °F 13.6 °F 21.9 °F 84% 29.83 in 6.0 mi WNW 16.1 mph - 0.00 in Snow Light Snow
6:24 AM 24.8 °F 11.9 °F 19.4 °F 80% 29.89 in 10.0 mi WNW 16.1 mph - 0.00 in   Mostly Cloudy
6:53 AM 24.1 °F 9.8 °F 19.0 °F 81% 29.89 in 10.0 mi WNW 19.6 mph 27.6 mph 0.00 in   Mostly Cloudy
7:53 AM 26.1 °F 13.6 °F 19.9 °F 78% 29.95 in 10.0 mi WNW 16.1 mph - N/A   Overcast
8:53 AM 26.1 °F 12.7 °F 21.0 °F 81% 29.99 in 10.0 mi West 18.4 mph - N/A   Overcast
9:53 AM 27.0 °F 16.1 °F 19.9 °F 75% 30.01 in 10.0 mi West 12.7 mph - 0.00 in   Overcast
10:53 AM 30.0 °F 21.1 °F 23.0 °F 75% 30.01 in 10.0 mi West 10.4 mph - N/A   Partly Cloudy
11:53 AM 32.0 °F 21.2 °F 25.0 °F 75% 30.01 in 10.0 mi WSW 16.1 mph - N/A   Clear
12:53 PM 32.0 °F 24.2 °F 25.0 °F 75% 30.02 in 10.0 mi WSW 9.2 mph - N/A   Overcast
1:53 PM 34.0 °F 25.5 °F 24.1 °F 67% 30.00 in 10.0 mi WSW 11.5 mph - N/A   Overcast
2:53 PM 37.9 °F 29.6 °F 25.0 °F 60% 29.96 in 10.0 mi WSW 13.8 mph 20.7 mph N/A   Partly Cloudy
3:53 PM 37.9 °F 29.6 °F 21.9 °F 53% 29.94 in 10.0 mi WSW 13.8 mph 17.3 mph N/A   Scattered Clouds
4:53 PM 39.0 °F 31.4 °F 23.0 °F 53% 29.94 in 10.0 mi WSW 12.7 mph - N/A   Scattered Clouds
5:53 PM 36.0 °F 26.3 °F 25.0 °F 64% 29.95 in 10.0 mi South 16.1 mph - N/A   Mostly Cloudy
6:53 PM 36.0 °F 29.0 °F 21.9 °F 57% 29.94 in 10.0 mi South 9.2 mph - N/A   Clear
7:53 PM 32.0 °F 26.4 °F 21.0 °F 64% 29.94 in 10.0 mi SSE 5.8 mph - N/A   Clear
8:53 PM 32.0 °F 28.7 °F 21.9 °F 66% 29.95 in 10.0 mi South 3.5 mph - N/A   Mostly Cloudy
9:53 PM 33.1 °F 25.5 °F 21.9 °F 64% 29.93 in 10.0 mi South 9.2 mph - N/A   Mostly Cloudy
10:53 PM 33.1 °F 26.9 °F 21.0 °F 61% 29.89 in 10.0 mi SSW 6.9 mph - N/A   Partly Cloudy
11:53 PM 33.1 °F 28.7 °F 21.9 °F 64% 29.84 in 10.0 mi West 4.6 mph - N/A   Mostly Cloudy